Location: BAF
(53.9483°N, 27.7497°E)
Time: 22:48:03
(UTC+02:00)

ISS - Pass Details

Date: 05 December 2020
Orbit: 418 x 419 km, 51.6° (Epoch: 16 January)

Event Time Altitude Azimuth Distance (km) Brightness Sun altitude
Rises 18:25:11 0° 277° (W) 2,369 1.4 -21.7°
Reaches altitude 10° 18:27:40 10° 260° (W) 1,502 0.2 -22.0°
Maximum altitude 18:30:09 19° 212° (SSW) 1,061 -1.3 -22.4°
Enters shadow 18:31:17 16° 185° (S) 1,167 -1.4 -22.5°
